EN

Hourly Weather Lag

Today, 23 July, Friday

Time Temperature Precipitation Wind Pressure Humidity
00:00 +15°C° 0 mm 1 mps 752 mmHg 80%
01:00 +14°C° 0 mm 1 mps 752 mmHg 84%
02:00 +14°C° 0 mm 1 mps 752 mmHg 85%
03:00 +14°C° 0 mm 1 mps 752 mmHg 87%
04:00 +13°C° 0 mm 2 mps 752 mmHg 88%
05:00 +15°C° 0 mm 2 mps 752 mmHg 81%
06:00 +17°C° 0 mm 2 mps 751 mmHg 73%
07:00 +20°C° 0 mm 1 mps 751 mmHg 65%
08:00 +20°C° 0 mm 2 mps 751 mmHg 59%
09:00 +23°C° 0 mm 2 mps 751 mmHg 53%
10:00 +24°C° 0 mm 2 mps 751 mmHg 47%
11:00 +25°C° 0 mm 2 mps 751 mmHg 43%
12:00 +26°C° 0 mm 2 mps 751 mmHg 39%
13:00 +27°C° 0 mm 2 mps 750 mmHg 35%
14:00 +27°C° 0 mm 2 mps 750 mmHg 35%
15:00 +28°C° 0 mm 2 mps 750 mmHg 34%
16:00 +28°C° 0 mm 2 mps 750 mmHg 34%
17:00 +26°C° 0 mm 2 mps 750 mmHg 43%
18:00 +24°C° 0 mm 3 mps 750 mmHg 52%
19:00 +22°C° 0 mm 3 mps 750 mmHg 61%
20:00 +20°C° 0 mm 3 mps 750 mmHg 69%
21:00 +19°C° 0 mm 2 mps 751 mmHg 76%
22:00 +17°C° 0 mm 2 mps 751 mmHg 83%
23:00 +17°C° 0 mm 2 mps 751 mmHg 85%

Tomorrow, 24 July, Saturday

Time Temperature Precipitation Wind Pressure Humidity
00:00 +17°C° 0 mm 2 mps 751 mmHg 88%
01:00 +16°C° 0 mm 1 mps 751 mmHg 90%
02:00 +16°C° 0 mm 1 mps 751 mmHg 90%
03:00 +16°C° 0 mm 1 mps 751 mmHg 91%
04:00 +16°C° 0 mm 1 mps 751 mmHg 92%
05:00 +18°C° 0 mm 1 mps 751 mmHg 85%
06:00 +20°C° 0 mm 1 mps 751 mmHg 79%
07:00 +20°C° 0 mm 2 mps 751 mmHg 72%
08:00 +23°C° 0 mm 2 mps 751 mmHg 65%
09:00 +24°C° 0 mm 2 mps 751 mmHg 57%
10:00 +26°C° 0 mm 2 mps 751 mmHg 49%
11:00 +26°C° 0 mm 2 mps 751 mmHg 47%
12:00 +27°C° 0 mm 2 mps 751 mmHg 45%
13:00 +27°C° 0 mm 2 mps 750 mmHg 43%
14:00 +26°C° 0 mm 2 mps 750 mmHg 47%
15:00 +25°C° 0 mm 2 mps 750 mmHg 52%
16:00 +25°C° 0 mm 2 mps 750 mmHg 56%
17:00 +24°C° 0 mm 2 mps 750 mmHg 60%
18:00 +23°C° 0 mm 2 mps 750 mmHg 65%
19:00 +21°C° 0 mm 3 mps 750 mmHg 69%
20:00 +20°C° 0 mm 3 mps 750 mmHg 71%
21:00 +19°C° 0 mm 3 mps 751 mmHg 73%
22:00 +18°C° 0 mm 3 mps 751 mmHg 75%
23:00 +18°C° 0 mm 2 mps 751 mmHg 75%

Day after tomorrow, 25 July, Sunday

Time Temperature Precipitation Wind Pressure Humidity
00:00 +18°C° 0 mm 2 mps 751 mmHg 75%
01:00 +18°C° 0 mm 2 mps 750 mmHg 75%
02:00 +18°C° 0 mm 2 mps 750 mmHg 76%
03:00 +18°C° 0 mm 2 mps 750 mmHg 78%
04:00 +17°C° 0 mm 2 mps 750 mmHg 79%
05:00 +19°C° 0 mm 2 mps 750 mmHg 73%
06:00 +20°C° 0 mm 2 mps 750 mmHg 68%
07:00 +22°C° 0 mm 3 mps 750 mmHg 62%
08:00 +25°C° 0 mm 3 mps 750 mmHg 55%
09:00 +26°C° 0 mm 4 mps 750 mmHg 48%
10:00 +28°C° 0 mm 4 mps 750 mmHg 41%
11:00 +29°C° 0 mm 4 mps 750 mmHg 39%
12:00 +30°C° 0 mm 4 mps 750 mmHg 37%
13:00 +30°C° 0 mm 5 mps 749 mmHg 35%
14:00 +30°C° 0 mm 4 mps 749 mmHg 37%
15:00 +30°C° 0 mm 4 mps 749 mmHg 39%
16:00 +29°C° 0 mm 4 mps 749 mmHg 41%
17:00 +27°C° 0.2 mm 4 mps 749 mmHg 52%
18:00 +25°C° 0.2 mm 4 mps 749 mmHg 63%
19:00 +22°C° 0.2 mm 4 mps 749 mmHg 74%
20:00 +21°C° 0.5 mm 3 mps 750 mmHg 79%
21:00 +20°C° 0.5 mm 2 mps 750 mmHg 84%
22:00 +21°C° 0.5 mm 1 mps 750 mmHg 89%
23:00 +20°C° 0 mm 1 mps 750 mmHg 89%

26 July, Monday

Time Temperature Precipitation Wind Pressure Humidity
00:00 +20°C° 0 mm 1 mps 750 mmHg 88%
01:00 +20°C° 0 mm 1 mps 749 mmHg 88%
02:00 +20°C° 0.3 mm 1 mps 749 mmHg 90%
03:00 +20°C° 0.3 mm 1 mps 749 mmHg 92%
04:00 +19°C° 0.3 mm 2 mps 749 mmHg 94%
05:00 +19°C° 0.6 mm 2 mps 749 mmHg 93%
06:00 +19°C° 0.6 mm 3 mps 749 mmHg 92%
07:00 +20°C° 0.6 mm 3 mps 749 mmHg 91%
08:00 +21°C° 0 mm 3 mps 748 mmHg 82%
09:00 +23°C° 0 mm 4 mps 748 mmHg 74%
10:00 +26°C° 0 mm 4 mps 748 mmHg 65%
11:00 +27°C° 0.1 mm 4 mps 748 mmHg 61%
12:00 +28°C° 0.1 mm 3 mps 747 mmHg 58%
13:00 +29°C° 0.1 mm 3 mps 747 mmHg 54%
14:00 +28°C° 0.4 mm 2 mps 747 mmHg 57%
15:00 +28°C° 0.4 mm 2 mps 747 mmHg 60%
16:00 +27°C° 0.4 mm 1 mps 747 mmHg 63%
17:00 +27°C° 0.2 mm 1 mps 747 mmHg 67%
18:00 +26°C° 0.2 mm 1 mps 746 mmHg 72%
19:00 +25°C° 0.2 mm 1 mps 746 mmHg 77%
20:00 +24°C° 0 mm 1 mps 746 mmHg 79%
21:00 +23°C° 0 mm 1 mps 747 mmHg 82%
22:00 +22°C° 0 mm 1 mps 747 mmHg 85%
23:00 +21°C° 0 mm 1 mps 747 mmHg 88%

27 July, Tuesday

Time Temperature Precipitation Wind Pressure Humidity
00:00 +20°C° 0 mm 2 mps 747 mmHg 90%
01:00 +19°C° 0 mm 2 mps 747 mmHg 92%
02:00 +19°C° 0.2 mm 2 mps 747 mmHg 92%
03:00 +19°C° 0.2 mm 2 mps 747 mmHg 92%
04:00 +19°C° 0.2 mm 2 mps 747 mmHg 92%
05:00 +20°C° 0.2 mm 2 mps 747 mmHg 87%
06:00 +21°C° 0.2 mm 2 mps 748 mmHg 83%
07:00 +21°C° 0.2 mm 2 mps 748 mmHg 79%
08:00 +24°C° 0 mm 2 mps 748 mmHg 70%
09:00 +26°C° 0 mm 3 mps 748 mmHg 61%
10:00 +28°C° 0 mm 3 mps 748 mmHg 51%
11:00 +29°C° 0 mm 3 mps 748 mmHg 47%
12:00 +30°C° 0 mm 3 mps 748 mmHg 43%
13:00 +31°C° 0 mm 3 mps 748 mmHg 39%
14:00 +29°C° 0 mm 3 mps 748 mmHg 43%
15:00 +28°C° 0 mm 3 mps 748 mmHg 48%
16:00 +27°C° 0 mm 3 mps 748 mmHg 53%
17:00 +26°C° 0.2 mm 2 mps 748 mmHg 59%
18:00 +25°C° 0.2 mm 1 mps 748 mmHg 65%
19:00 +24°C° 0.2 mm 1 mps 748 mmHg 71%
20:00 +23°C° 0 mm 1 mps 748 mmHg 75%
21:00 +20°C° 0 mm 0 mps 748 mmHg 78%
22:00 +19°C° 0 mm 0 mps 749 mmHg 82%
23:00 +20°C° 0 mm 1 mps 748 mmHg 83%

28 July, Wednesday

Time Temperature Precipitation Wind Pressure Humidity
00:00 +20°C° 0 mm 1 mps 748 mmHg 84%
01:00 +20°C° 0 mm 1 mps 748 mmHg 84%
02:00 +20°C° 0 mm 1 mps 748 mmHg 85%
03:00 +19°C° 0 mm 1 mps 748 mmHg 85%
04:00 +18°C° 0 mm 2 mps 748 mmHg 85%
05:00 +19°C° 0 mm 2 mps 748 mmHg 84%
06:00 +19°C° 0 mm 2 mps 748 mmHg 82%
07:00 +20°C° 0 mm 2 mps 748 mmHg 81%
08:00 +21°C° 0.3 mm 3 mps 748 mmHg 77%
09:00 +22°C° 0.3 mm 3 mps 748 mmHg 72%
10:00 +23°C° 0.3 mm 4 mps 748 mmHg 68%
11:00 +25°C° 0.4 mm 4 mps 748 mmHg 62%
12:00 +26°C° 0.4 mm 4 mps 748 mmHg 55%
13:00 +28°C° 0.4 mm 3 mps 748 mmHg 49%
14:00 +27°C° 0 mm 3 mps 748 mmHg 49%
15:00 +27°C° 0 mm 3 mps 748 mmHg 49%
16:00 +27°C° 0 mm 2 mps 748 mmHg 49%
17:00 +26°C° 0 mm 2 mps 749 mmHg 53%
18:00 +25°C° 0 mm 1 mps 749 mmHg 57%
19:00 +24°C° 0 mm 1 mps 749 mmHg 60%
20:00 +24°C° 0 mm 1 mps 749 mmHg 62%
21:00 +23°C° 0 mm 1 mps 749 mmHg 63%
22:00 +22°C° 0 mm 1 mps 749 mmHg 64%
23:00 +22°C° 0 mm 1 mps 749 mmHg 65%
Show more